Radiation Dose at Monitoring Post of Fukushima Daini Nuclear Power Station
Date,Time,MP-1(microSv/h),MP-2(microSv/h),MP-3(microSv/h),MP-4(microSv/h),MP-5(microSv/h),MP-6(microSv/h),MP-7(microSv/h),Wind Direction,Wind Velocity(m/s),Rain
2019/11/06,00:00,0.187,0.164,0.279,0.262,0.263,0.142,0.087,southwest,5.6,No
2019/11/06,00:10,0.187,0.164,0.279,0.263,0.262,0.142,0.087,southwest,4.3,No
2019/11/06,00:20,0.187,0.165,0.279,0.261,0.262,0.142,0.087,southwest,4.8,No
2019/11/06,00:30,0.187,0.165,0.279,0.262,0.263,0.141,0.088,south-southwest,4.0,No
2019/11/06,00:40,0.187,0.164,0.281,0.261,0.264,0.142,0.088,southwest,3.4,No
2019/11/06,00:50,0.186,0.165,0.279,0.263,0.262,0.142,0.087,southwest,3.5,No
2019/11/06,01:00,0.186,0.163,0.279,0.262,0.263,0.142,0.087,south-southwest,4.8,No
2019/11/06,01:10,0.187,0.163,0.279,0.260,0.263,0.142,0.087,south-southwest,4.2,No
2019/11/06,01:20,0.188,0.164,0.278,0.262,0.262,0.142,0.086,south-southwest,4.5,No
2019/11/06,01:30,0.186,0.164,0.280,0.262,0.263,0.142,0.087,south-southwest,4.5,No
2019/11/06,01:40,0.186,0.163,0.279,0.261,0.263,0.141,0.087,south-southwest,5.0,No
2019/11/06,01:50,0.187,0.164,0.279,0.261,0.262,0.142,0.088,south,3.6,No
2019/11/06,02:00,0.186,0.163,0.279,0.262,0.263,0.142,0.087,south-southwest,4.0,No
2019/11/06,02:10,0.186,0.164,0.279,0.262,0.264,0.143,0.088,south-southwest,3.7,No
2019/11/06,02:20,0.186,0.164,0.278,0.261,0.263,0.142,0.087,south-southwest,3.1,No
2019/11/06,02:30,0.186,0.164,0.279,0.263,0.264,0.141,0.087,south-southwest,2.6,No
2019/11/06,02:40,0.186,0.164,0.279,0.262,0.263,0.142,0.088,south-southwest,2.9,No
2019/11/06,02:50,0.187,0.164,0.279,0.260,0.263,0.142,0.088,south-southwest,3.5,No
2019/11/06,03:00,0.187,0.163,0.278,0.262,0.263,0.142,0.087,southwest,2.5,No
2019/11/06,03:10,0.187,0.164,0.280,0.262,0.263,0.142,0.087,southwest,3.0,No
2019/11/06,03:20,0.186,0.165,0.278,0.261,0.262,0.142,0.087,southwest,3.6,No
2019/11/06,03:30,0.187,0.164,0.278,0.261,0.263,0.142,0.087,southwest,4.5,No
2019/11/06,03:40,0.187,0.164,0.278,0.261,0.262,0.142,0.087,southwest,4.9,No
2019/11/06,03:50,0.187,0.164,0.278,0.262,0.263,0.142,0.087,southwest,5.6,No
2019/11/06,04:00,0.187,0.164,0.278,0.261,0.262,0.142,0.087,west-southwest,4.8,No
2019/11/06,04:10,0.187,0.164,0.278,0.262,0.263,0.142,0.087,west-southwest,3.0,No
2019/11/06,04:20,0.186,0.164,0.280,0.262,0.262,0.141,0.087,west-southwest,3.8,No
2019/11/06,04:30,0.187,0.164,0.277,0.261,0.264,0.142,0.086,west-southwest,4.9,No
2019/11/06,04:40,0.187,0.163,0.278,0.261,0.262,0.142,0.087,southwest,4.8,No
2019/11/06,04:50,0.186,0.164,0.280,0.261,0.261,0.143,0.087,southwest,4.9,No
2019/11/06,05:00,0.187,0.164,0.279,0.261,0.263,0.143,0.087,south-southwest,3.2,No
2019/11/06,05:10,0.187,0.163,0.277,0.262,0.263,0.142,0.087,south-southwest,3.0,No
2019/11/06,05:20,0.186,0.165,0.279,0.261,0.263,0.142,0.088,southwest,2.3,No
2019/11/06,05:30,0.187,0.163,0.279,0.261,0.262,0.142,0.087,south-southwest,1.9,No
2019/11/06,05:40,0.187,0.164,0.278,0.261,0.263,0.141,0.087,west-southwest,2.4,No
2019/11/06,05:50,0.187,0.164,0.280,0.262,0.262,0.143,0.087,west,3.2,No
2019/11/06,06:00,0.186,0.164,0.279,0.262,0.264,0.141,0.087,-,CALM,No
2019/11/06,06:10,0.186,0.163,0.278,0.262,0.262,0.142,0.087,northeast,2.1,No
2019/11/06,06:20,0.187,0.164,0.278,0.262,0.264,0.141,0.087,east-southeast,1.7,No
2019/11/06,06:30,0.187,0.164,0.279,0.261,0.265,0.142,0.087,south-southwest,2.5,No
2019/11/06,06:40,0.187,0.164,0.280,0.260,0.263,0.142,0.087,south-southwest,3.6,No
2019/11/06,06:50,0.187,0.163,0.280,0.262,0.262,0.142,0.087,south,2.6,No
2019/11/06,07:00,0.187,0.165,0.278,0.260,0.263,0.141,0.087,south,4.3,No
2019/11/06,07:10,0.187,0.164,0.280,0.262,0.263,0.142,0.088,south-southwest,4.2,No
2019/11/06,07:20,0.188,0.164,0.279,0.262,0.263,0.143,0.087,southwest,4.4,No
2019/11/06,07:30,0.186,0.164,0.279,0.261,0.264,0.140,0.086,southwest,5.0,No
2019/11/06,07:40,0.187,0.164,0.281,0.261,0.261,0.141,0.087,west-southwest,5.1,No
2019/11/06,07:50,0.187,0.164,0.278,0.260,0.264,0.141,0.087,west-southwest,6.7,No
2019/11/06,08:00,0.186,0.165,0.279,0.260,0.263,0.142,0.086,southwest,5.7,No
2019/11/06,08:10,0.188,0.163,0.279,0.261,0.263,0.140,0.086,west-southwest,5.0,No
2019/11/06,08:20,0.186,0.165,0.278,0.260,0.263,0.141,0.088,west,6.0,No
2019/11/06,08:30,0.186,0.164,0.279,0.260,0.263,0.141,0.087,west-southwest,8.1,No
2019/11/06,08:40,0.186,0.164,0.281,0.260,0.265,0.142,0.087,west,6.3,No
2019/11/06,08:50,0.187,0.165,0.279,0.258,0.262,0.140,0.087,west,8.4,No
2019/11/06,09:00,0.186,0.164,0.279,0.261,0.265,0.143,0.087,west,8.3,No
2019/11/06,09:10,0.187,0.164,0.279,0.260,0.262,0.141,0.087,west,9.5,No
2019/11/06,09:20,0.187,0.163,0.279,0.259,0.263,0.141,0.087,west,7.9,No
2019/11/06,09:30,0.186,0.163,0.278,0.262,0.261,0.142,0.087,west,8.2,No
2019/11/06,09:40,0.186,0.165,0.279,0.259,0.263,0.142,0.087,west,6.9,No
2019/11/06,09:50,0.186,0.163,0.279,0.259,0.261,0.141,0.086,west,6.0,No
2019/11/06,10:00,0.185,0.164,0.278,0.262,0.262,0.142,0.087,west,6.3,No
2019/11/06,10:10,0.185,0.163,0.279,0.261,0.263,0.141,0.087,west,5.3,No
2019/11/06,10:20,0.186,0.163,0.279,0.260,0.261,0.142,0.087,west-southwest,7.0,No
2019/11/06,10:30,0.186,0.164,0.279,0.260,0.258,0.142,0.086,west-southwest,5.9,No
2019/11/06,10:40,0.185,0.162,0.280,0.262,0.264,0.141,0.087,west,5.1,No
2019/11/06,10:50,0.187,0.163,0.279,0.260,0.262,0.142,0.087,west,8.1,No
2019/11/06,11:00,0.186,0.164,0.279,0.259,0.260,0.142,0.087,west-northwest,5.9,No
2019/11/06,11:10,0.187,0.164,0.279,0.258,0.264,0.142,0.087,west,5.6,No
2019/11/06,11:20,0.188,0.164,0.280,0.262,0.263,0.142,0.088,west,3.7,No
2019/11/06,11:30,0.186,0.165,0.280,0.262,0.261,0.142,0.087,west-northwest,5.0,No
2019/11/06,11:40,0.185,0.163,0.280,0.260,0.259,0.143,0.087,west-northwest,6.4,No
2019/11/06,11:50,0.187,0.164,0.280,0.260,0.261,0.143,0.088,west,5.9,No
2019/11/06,12:00,0.187,0.163,0.281,0.258,0.264,0.142,0.088,west,7.2,No
2019/11/06,12:10,0.186,0.162,0.279,0.260,0.264,0.142,0.086,west-northwest,7.3,No
2019/11/06,12:20,0.186,0.165,0.281,0.262,0.260,0.142,0.087,west-northwest,6.8,No
2019/11/06,12:30,0.189,0.164,0.278,0.261,0.265,0.141,0.088,west-northwest,5.5,No
2019/11/06,12:40,0.186,0.164,0.282,0.260,0.264,0.144,0.087,west,8.1,No
2019/11/06,12:50,0.185,0.166,0.278,0.259,0.262,0.143,0.087,west,8.8,No
2019/11/06,13:00,0.188,0.164,0.282,0.259,0.262,0.142,0.087,west,11.5,No
2019/11/06,13:10,0.187,0.164,0.279,0.261,0.265,0.143,0.088,west-northwest,9.6,No
2019/11/06,13:20,0.186,0.166,0.280,0.265,0.264,0.142,0.088,west-northwest,10.7,No
2019/11/06,13:30,0.186,0.164,0.281,0.262,0.261,0.143,0.088,west-northwest,8.5,No
2019/11/06,13:40,0.188,0.164,0.278,0.260,0.265,0.143,0.088,west-northwest,9.0,No
2019/11/06,13:50,0.186,0.165,0.281,0.262,0.263,0.142,0.087,northwest,7.6,No
2019/11/06,14:00,0.187,0.164,0.280,0.264,0.261,0.145,0.089,northwest,7.7,No
2019/11/06,14:10,0.189,0.166,0.282,0.262,0.266,0.143,0.088,northwest,4.6,No
2019/11/06,14:20,0.189,0.164,0.279,0.264,0.264,0.142,0.088,northwest,3.2,No
2019/11/06,14:30,0.189,0.165,0.282,0.263,0.265,0.142,0.087,west,5.9,No
2019/11/06,14:40,0.188,0.165,0.281,0.263,0.264,0.142,0.088,west-northwest,6.2,No
2019/11/06,14:50,0.190,0.166,0.283,0.264,0.265,0.143,0.088,west,6.4,No
2019/11/06,15:00,0.187,0.166,0.281,0.263,0.266,0.142,0.087,west-northwest,8.2,No
2019/11/06,15:10,0.189,0.165,0.281,0.264,0.264,0.141,0.088,west-northwest,7.7,No
2019/11/06,15:20,0.188,0.165,0.280,0.263,0.265,0.142,0.088,west-northwest,6.4,No
2019/11/06,15:30,0.189,0.165,0.282,0.265,0.263,0.142,0.088,west-northwest,6.0,No
2019/11/06,15:40,0.188,0.166,0.280,0.263,0.265,0.142,0.088,west-northwest,7.5,No
2019/11/06,15:50,0.188,0.165,0.281,0.264,0.263,0.143,0.088,west-northwest,8.3,No
2019/11/06,16:00,0.188,0.164,0.281,0.264,0.264,0.142,0.088,west-northwest,6.7,No
2019/11/06,16:10,0.189,0.166,0.281,0.263,0.262,0.143,0.088,west-northwest,5.0,No
2019/11/06,16:20,0.187,0.165,0.282,0.263,0.265,0.143,0.088,west-northwest,5.6,No
2019/11/06,16:30,0.188,0.166,0.279,0.262,0.264,0.143,0.088,west-northwest,6.0,No
2019/11/06,16:40,0.188,0.165,0.282,0.265,0.264,0.143,0.088,west-northwest,5.4,No
2019/11/06,16:50,0.188,0.166,0.281,0.262,0.264,0.143,0.088,west-northwest,5.4,No
2019/11/06,17:00,0.188,0.165,0.283,0.264,0.264,0.143,0.088,west-northwest,3.2,No
2019/11/06,17:10,0.188,0.166,0.282,0.262,0.265,0.142,0.089,west-northwest,4.6,No
2019/11/06,17:20,0.188,0.166,0.280,0.263,0.263,0.143,0.087,west-northwest,5.3,No
2019/11/06,17:30,0.188,0.166,0.282,0.265,0.265,0.142,0.087,west-northwest,6.2,No
2019/11/06,17:40,0.189,0.165,0.280,0.263,0.265,0.143,0.087,west-northwest,6.1,No
2019/11/06,17:50,0.188,0.165,0.281,0.263,0.263,0.144,0.088,northwest,6.1,No
2019/11/06,18:00,0.188,0.165,0.281,0.264,0.265,0.143,0.088,west-northwest,4.6,No
2019/11/06,18:10,0.189,0.165,0.280,0.263,0.263,0.144,0.088,northwest,5.0,No
2019/11/06,18:20,0.187,0.166,0.281,0.265,0.266,0.144,0.088,northwest,4.8,No
2019/11/06,18:30,0.188,0.165,0.280,0.263,0.264,0.144,0.088,northwest,3.6,No
2019/11/06,18:40,0.189,0.165,0.280,0.263,0.265,0.143,0.088,north-northwest,4.7,No
2019/11/06,18:50,0.187,0.166,0.281,0.264,0.265,0.143,0.088,north-northwest,5.9,No
2019/11/06,19:00,0.188,0.167,0.280,0.263,0.265,0.144,0.088,northwest,7.0,No
2019/11/06,19:10,0.187,0.166,0.282,0.263,0.264,0.144,0.088,northwest,6.3,No
2019/11/06,19:20,0.189,0.165,0.281,0.264,0.266,0.143,0.088,northwest,4.0,No
2019/11/06,19:30,0.189,0.164,0.281,0.264,0.263,0.144,0.088,northwest,4.0,No
2019/11/06,19:40,0.188,0.166,0.282,0.262,0.264,0.143,0.088,northwest,5.3,No
2019/11/06,19:50,0.189,0.165,0.279,0.264,0.265,0.143,0.088,northwest,5.5,No
2019/11/06,20:00,0.188,0.165,0.282,0.263,0.265,0.143,0.089,northwest,6.0,No
2019/11/06,20:10,0.188,0.166,0.283,0.263,0.265,0.143,0.088,northwest,5.6,No
2019/11/06,20:20,0.189,0.165,0.280,0.262,0.266,0.144,0.088,northwest,4.6,No
2019/11/06,20:30,0.188,0.165,0.281,0.263,0.264,0.143,0.088,north-northwest,4.1,No
2019/11/06,20:40,0.189,0.166,0.281,0.263,0.264,0.143,0.088,north-northwest,3.1,No
2019/11/06,20:50,0.188,0.165,0.282,0.264,0.265,0.143,0.088,north,2.8,No
2019/11/06,21:00,0.188,0.165,0.280,0.263,0.263,0.143,0.088,north,2.8,No
2019/11/06,21:10,0.188,0.167,0.282,0.263,0.265,0.143,0.088,north,3.2,No
2019/11/06,21:20,0.188,0.165,0.281,0.264,0.264,0.143,0.088,north,2.6,No
2019/11/06,21:30,0.189,0.166,0.282,0.263,0.265,0.144,0.088,north,2.0,No
2019/11/06,21:40,0.190,0.166,0.282,0.265,0.266,0.143,0.089,north,2.8,No
2019/11/06,21:50,0.188,0.166,0.281,0.264,0.265,0.143,0.088,north-northwest,2.3,No
2019/11/06,22:00,0.188,0.165,0.282,0.263,0.264,0.143,0.088,west-northwest,1.3,No
2019/11/06,22:10,0.188,0.166,0.282,0.264,0.264,0.143,0.088,west,2.7,No
2019/11/06,22:20,0.189,0.164,0.281,0.264,0.264,0.144,0.088,west-northwest,2.5,No
2019/11/06,22:30,0.188,0.165,0.282,0.263,0.264,0.144,0.089,west,1.4,No
2019/11/06,22:40,0.190,0.166,0.282,0.264,0.264,0.143,0.089,south-southeast,0.9,No
2019/11/06,22:50,0.188,0.165,0.281,0.265,0.266,0.143,0.087,east-northeast,0.8,No
2019/11/06,23:00,0.188,0.164,0.281,0.265,0.264,0.143,0.088,-,CALM,No
2019/11/06,23:10,0.190,0.166,0.281,0.264,0.265,0.143,0.088,-,CALM,No
2019/11/06,23:20,0.188,0.166,0.281,0.264,0.265,0.142,0.088,west-southwest,1.3,No
2019/11/06,23:30,0.187,0.166,0.282,0.263,0.265,0.143,0.088,southwest,1.4,No
2019/11/06,23:40,0.189,0.166,0.281,0.263,0.264,0.143,0.088,west-southwest,1.9,No
2019/11/06,23:50,0.188,0.165,0.281,0.264,0.264,0.143,0.088,west-southwest,3.0,No
